Tracking 19717 objects as of 24-Jun-2019
HD Live streaming from Space Station
objects crossing your sky now

DELTA 2 DEB


DELTA 2 DEB is no longer on orbit


NORAD ID: 39738
Int'l Code: 1999-008J
Perigee: N/A
Apogee: N/A
Inclination: N/A
Period: N/A
Semi major axis: N/A
RCS: N/A
Launch date: February 23, 1999
Source: United States (US)
Launch site: AIR FORCE WESTERN TEST RANGE (AFWTR)
Decay date: 2014-05-13

Note: This is SATELLITE DEBRIS
aabbcc
Your satellite tracking list
Your tracking list is empty




NASA's NSSDC Master Catalog

Two Line Element Set (TLE):
1 39738U 99008J   14132.91376030  .36319507  00000-0  11563+1 0  9996
2 39738 096.3049 283.3251 0118286 292.9821 069.6241 15.18015050  1034
Source of the keplerian elements: AFSPC